This is the latest recevied weather packets stored in our database for station/object N3TJJ-2. If no packets are shown the sender has not sent any weather packets the latest 10 day(s).
| Time | Temp. | Humidity | Pressure | Rain* | Wind** | Luminosity | Snow |
|---|---|---|---|---|---|---|---|
| 1778076320 | 15° C | 32% | 1010.1 hPa | 1.27 mm | - | - | - |
| 1778075967 | 15° C | 33% | 1009.9 hPa | 1.27 mm | - | - | - |
| 1778075603 | 15° C | 33% | 1009.9 hPa | 1.02 mm | - | - | - |
| 1778075305 | 15° C | 33% | 1010.1 hPa | 1.02 mm | - | - | - |
| 1778074891 | 15° C | 34% | 1010.1 hPa | 0.76 mm | - | - | - |
| 1778074518 | 15° C | 34% | 1010.1 hPa | 0.51 mm | - | - | - |
| 1778074162 | 15° C | 35% | 1010.1 hPa | 0.51 mm | - | - | - |
| 1778073799 | 15° C | 35% | 1010.1 hPa | 0.25 mm | - | - | - |
| 1778073460 | 15° C | 35% | 1010.1 hPa | 0.25 mm | - | - | - |
| 1778073077 | 15° C | 36% | 1010.2 hPa | 0.25 mm | - | - | - |
| 1778072718 | 15° C | 37% | 1010.4 hPa | 0.25 mm | - | - | - |
| 1778072375 | 14.44° C | 39% | 1010.3 hPa | 0 mm | - | - | - |
| 1778071997 | 14.44° C | 40% | 1010.3 hPa | 0 mm | - | - | - |
| 1778071638 | 14.44° C | 41% | 1010.3 hPa | 0 mm | - | - | - |
| 1778071293 | 14.44° C | 43% | 1010.4 hPa | 0 mm | - | - | - |
| 1778070922 | 14.44° C | 45% | 1010.6 hPa | 0 mm | - | - | - |
| 1778070556 | 14.44° C | 48% | 1010.6 hPa | 0 mm | - | - | - |
| 1778070197 | 14.44° C | 51% | 1010.6 hPa | 0 mm | - | - | - |
| 1778069839 | 14.44° C | 57% | 1010.5 hPa | 0 mm | - | - | - |
| 1778069479 | 15° C | 66% | 1010.3 hPa | 0 mm | - | - | - |
| 1778069119 | 16.11° C | 79% | 1010.3 hPa | 0 mm | - | - | - |
| 1778068759 | 17.22° C | 81% | 1010.3 hPa | 0 mm | - | - | - |
| 1778068396 | 17.22° C | 80% | 1010.1 hPa | 0 mm | - | - | - |
| 1778068037 | 17.22° C | 80% | 1010 hPa | 0 mm | - | - | - |
| 1778067681 | 17.22° C | 80% | 1010 hPa | 0 mm | - | - | - |
* Rain latest hour (hover to see other rain measurements)
** Current wind speed in m/s (hover to see current wind gust speed)